Terminal Aerodrome Forecast
Issued by NWS

Home | Current Version | Previous Version | Text Only | Print | Product List | Glossary On
Versions: 1 2 3 4 5 6 7 8 9 10 11 12 13 14 15 16 17 18 19 20 21 22 23 24 25 26 27 28 29 30 31 32 33 34 35 36 37 38 39 40
000
FTPA31 PHFO 220400 AAC
TAFPPG
TAF AMD
NSTU 220452Z 2205/2224 10015KT P6SM -SHRA VCTS FEW006 SCT015CB
      OVC035
      TEMPO 2205/2209 VRB05KT 3SM SHRA SCT006CB BKN012 OVC035=

USA.gov is the U.S. government's official web portal to all federal, state and local government web resources and services.